Location: Slanting_Bridge
(35.6330°N, 80.9830°W)
Time: 16:10:43
(UTC-04:00)

Hamsat - Visible Passes

Search period start: 18 August 2017 00:00
Search period end: 28 August 2017 00:00
Orbit: 586 x 617 km, 97.7° (Epoch: 18 August)

Date Brightness Start Highest point End Pass type
(mag) Time Alt. Az. Time Alt. Az. Time Alt. Az.
18 Aug ? 04:29:08 10° NE 04:32:14 19° E 04:35:17 10° SE visible
18 Aug ? 06:04:13 10° N 06:08:00 30° WNW 06:11:44 10° SW visible
19 Aug ? 04:40:22 10° NE 04:43:59 26° E 04:47:34 10° SSE visible
19 Aug ? 06:16:14 10° NNW 06:19:36 23° WNW 06:22:57 10° WSW visible
20 Aug ? 04:51:46 10° NNE 04:55:44 35° E 04:59:19 12° SSE visible
21 Aug ? 05:03:16 10° NNE 05:07:27 49° E 05:11:04 13° S visible
22 Aug ? 05:14:51 10° NNE 05:19:09 70° E 05:22:49 14° S visible
23 Aug ? 05:26:31 10° N 05:30:50 84° WNW 05:34:33 13° SSW visible
24 Aug ? 05:38:15 10° N 05:42:30 60° WNW 05:46:17 12° SSW visible
25 Aug ? 04:16:09 10° ENE 04:18:11 13° E 04:20:13 10° ESE visible
25 Aug ? 05:50:04 10° N 05:54:08 43° WNW 05:58:02 11° SW visible
26 Aug ? 04:27:00 10° NE 04:29:58 18° E 04:32:54 10° SE visible
26 Aug ? 06:01:58 10° N 06:05:46 31° WNW 06:09:31 10° SW visible
27 Aug ? 04:38:13 10° NE 04:41:44 24° E 04:44:43 12° SSE visible
27 Aug ? 06:13:57 10° NNW 06:17:21 23° WNW 06:20:43 10° WSW visible
